Regional Weather Roundup
Issued by NWS

Home | Current Version | Previous Version | Graphics & Text | Print | Product List | Glossary On
Versions: 1 2 3 4 5 6 7 8 9 10 11 12 13 14 15 16 17 18 19 20 21 22 23 24 25 26 27 28 29 30 31 32 33 34 35 36 37 38 39 40 41 42 43 44 45 46 47 48 49 50
000
ASUS43 KMPX 010210
RWRMN
WEATHER ROUNDUP FOR MINNESOTA
NATIONAL WEATHER SERVICE TWIN CITIES/CHANHASSEN MN
900 PM CDT WED AUG 31 2016


NOTE: "FAIR" INDICATES FEW OR NO CLOUDS BELOW 12,000 FEET WITH NO
SIGNIFICANT WEATHER AND/OR OBSTRUCTIONS TO VISIBILITY. N/A MEANS
CURRENT SKY AND/OR WEATHER CONDITIONS ARE NOT AVAILABLE.

MNZ060>063-068>070-010300-
   Twin Cities Metro

CITY           SKY/WX    TMP DP  RH WIND       PRES   REMARKS
TWIN CITIES    PTCLDY    70  49  47 N5        30.18R
ST PAUL        CLEAR     67  53  61 CALM      30.18R
CRYSTAL        CLEAR     65  52  62 CALM      30.18R
LAKEVILLE      CLEAR     59  55  88 CALM      30.19R
EDEN PRAIRIE   CLEAR     70  55  59 N5        30.18R
LAKEVILLE      CLEAR     59  55  88 CALM      30.19R
SOUTH ST PAUL  CLEAR     67  53  60 CALM      30.18R
LAKE ELMO      FAIR      63  59  88 CALM      30.20R
$$
MNZ001>005-007-008-013>017-022>024-027-028-010300-
   Northwest Minnesota

CITY           SKY/WX    TMP DP  RH WIND       PRES   REMARKS
BEMIDJI        CLEAR     58  53  83 N5        30.24S
HALLOCK        PTCLDY    63  55  77 NE6       30.22S
ROSEAU         CLEAR     61  54  77 CALM      30.26R
WARROAD        CLEAR     61  55  82 NE7       30.26S
THIEF RVR FALL CLOUDY    62  55  77 NE7       30.24R
CROOKSTON      PTCLDY    66  55  68 E6        30.22S
FOSSTON        CLOUDY    57  54  88 CALM      30.24R
DETROIT LAKES  CLOUDY    66  55  68 CALM      30.24R
MOORHEAD       CLOUDY    64  55  72 E5        30.21S
PARK RAPIDS    CLEAR     65  54  67 NE6       30.23R
MAHNOMEN       FAIR      61  56  84 NE5       30.23R
$$
MNZ006-009>011-018-025>026-010300-
   North Central Minnesota

CITY           SKY/WX    TMP DP  RH WIND       PRES   REMARKS
BAUDETTE       CLEAR     59  54  83 N8        30.25R
FLAG ISLAND    CLEAR     63  54  72 NE3       30.25F
INTL FALLS     CLEAR     61  50  67 N6        30.25R
WASKISH        CLEAR     61  55  82 N6        30.25R
BIG FORK       CLEAR     54  52  94 CALM      30.25R
LONGVILLE      CLEAR     57  55  94 CALM      30.24R
GRAND RAPIDS   CLEAR     54  53  97 CALM      30.26R
CRANE LAKE     MOCLDY    54  54 100 CALM      30.26R
ORR            PTCLDY    55  54  94 CALM      30.23R
COOK           CLEAR     55  54  94 CALM      30.25R
WALKER         FAIR      59  55  84 N3        30.24R
$$
MNZ012-019>021-037-010300-
   Northeast Minnesota

CITY           SKY/WX    TMP DP  RH WIND       PRES   REMARKS
DULUTH         PTCLDY    57  55  93 CALM      30.22R
ELY            CLOUDY    57  54  88 CALM      30.24R
HIBBING        CLEAR     54  53  97 CALM      30.24R
EVELETH        CLEAR     58  53  84 CALM      30.25R
DULUTH HARBOR  PTCLDY    68  63  83 NE9       30.21R
TWO HARBORS    CLEAR     61  55  82 CALM      30.20R
SILVER BAY     CLEAR     57  55  94 CALM      30.20R
GRAND MARAIS     N/A     61  51  70 N5        30.20R
G MARAIS ARPRT PTCLDY    54  48  82 N6        30.25R
$$
MNZ029>031-032-039>041-046>048-054>057-064-010300-
   West Central Minnesota

CITY           SKY/WX    TMP DP  RH WIND       PRES   REMARKS
FERGUS FALLS   PTCLDY    66  57  72 NE5       30.22R
WHEATON        CLEAR     70  59  68 NE5       30.21R
MORRIS         CLEAR     68  57  68 E5        30.19S
ALEXANDRIA     CLEAR     67  58  72 CALM      30.23R
ELBOW LAKE     FAIR      69  57  64 CALM      30.21R
GLENWOOD       CLEAR     66  57  72 NE5       30.22R
APPLETON       CLEAR     66  61  82 CALM      30.19R
BENSON         CLEAR     63  57  82 CALM      30.20R
ORTONVILLE     CLEAR     70  59  68 CALM      30.19R
MADISON        PTCLDY    66  63  88 E3        30.20R
WILLMAR        FAIR      66  59  77 CALM      30.21R
$$
MNZ033>034-036-042>043-049>051-058-059-010300-
   Central Minnesota

CITY           SKY/WX    TMP DP  RH WIND       PRES   REMARKS
ST CLOUD       CLEAR     60  55  83 CALM      30.20R
SAUK CENTRE    FAIR      65  55  70 NE7       30.22R
PAYNESVILLE    CLEAR     62  56  81 CALM      30.21R
AITKIN         PTCLDY    63  52  67 N6        30.21S
PINE RIVER     CLEAR     61  55  82 CALM      30.26R
BRAINERD       CLEAR     63  57  81 CALM      30.22R
STAPLES        CLEAR     63  54  72 CALM      30.23R
LONG PRAIRIE   FAIR      63  55  77 CALM      30.22R
LITTLE FALLS   CLEAR     63  54  72 CALM      30.21S
LITCHFIELD     CLEAR     70  61  73 CALM      30.20R
BUFFALO        CLEAR     66  54  63 N3        30.21R
MAPLE LAKE     CLEAR     64  60  86 CALM      30.21R
HUTCHINSON     PTCLDY    65  61  85 CALM      30.21R
$$
MNZ037-044-045-052-053-010300-
   East Central Minnesota

CITY           SKY/WX    TMP DP  RH WIND       PRES   REMARKS
PRINCETON      CLEAR     61  55  82 CALM      30.20R
MORA           PTCLDY    59  54  82 CALM      30.22R
CAMBRIDGE      CLEAR     63  52  67 CALM      30.19R
MOOSE LAKE     PTCLDY    59  54  82 NE3       30.20R
HINCKLEY       FAIR      59  55  88 N5        30.20R
CLOQUET        MOCLDY    63  55  77 CALM      30.22R
MCGREGOR       CLEAR     61  54  77 N3        30.23R
$$
MNZ071>073-080-081-089-090-097-098-010300-
   Southwest Minnesota

CITY           SKY/WX    TMP DP  RH WIND       PRES   REMARKS
MONTEVIDEO     CLEAR     66  59  77 CALM      30.21R
GRANITE FALLS  CLEAR     68  63  82 CALM      30.21R
CANBY          CLEAR     69  61  77 CALM      30.21R
MARSHALL       CLEAR     70  61  73 CALM      30.20R
REDWOOD FALLS  CLEAR     71  59  65 NE3       30.19R
OLIVIA         CLEAR     70  59  68 CALM      30.19R
WINDOM         CLEAR     64  61  88 CALM      30.21R
WORTHINGTON    CLEAR     67  60  78 NE6       30.22R
JACKSON        CLEAR     63  59  88 N3        30.21R
TRACY          CLEAR     67  63  87 CALM      30.21R
SLAYTON        CLEAR     66  61  82 CALM      30.23R
$$
MNZ065>067-074>077-082>085-091>093-010300-
   South Central Minnesota

CITY           SKY/WX    TMP DP  RH WIND       PRES   REMARKS
MANKATO        CLEAR     69  57  65 CALM      30.19R
NEW ULM        CLEAR     66  59  77 CALM      30.19R
ST JAMES       CLEAR     64  61  88 CALM      30.20R
FAIRMONT       CLEAR     66  59  78 N6        30.19R
GLENCOE        CLEAR     66  63  89 CALM      30.19R
FARIBAULT      CLEAR     61  61 100 CALM      30.19R
OWATONNA       CLEAR     61  57  88 CALM      30.20R
WASECA         CLEAR     59  55  88 NW5       30.20R
ALBERT LEA     CLEAR     63  57  82 CALM      30.19R
$$
MNZ078>079-086>088-094>096-010300-
   Southeast Minnesota

CITY           SKY/WX    TMP DP  RH WIND       PRES   REMARKS
ROCHESTER      CLEAR     63  55  75 N7        30.19R
RED WING       CLEAR     63  57  82 N3        30.16S
STANTON        CLEAR     61  57  88 CALM      30.17R
DODGE CENTER   CLEAR     61  54  77 CALM      30.19R
WINONA         CLEAR     63  57  82 CALM      30.17R
AUSTIN         CLEAR     63  55  77 CALM      30.18R
PRESTON        CLEAR     64  53  67 N5        30.19R
$$
ABBREVIATIONS USED IN REMARKS
   TC - TEMPERATURES IN CELSIUS
  WCI - WIND CHILL INDEX
   HX - HEAT INDEX
  VSB - VISIBILITY
$$




USA.gov is the U.S. government's official web portal to all federal, state and local government web resources and services.